STARLINK-32854, 62816

Orbit data source: Space-Track

STARLINK-32854, 62816 is a payload satellite owned by SpaceX/Seattle (US) in LEO that was launched on Fri, 24 Jan 2025 UTC via an FALCON 9 launch vehicle from the Air Force Western Test Range (AFWTR). Payload-class satellites include a variety of spacecraft equipped with specific instruments for various scientific and technological missions. These include communications satellites like Starlink; space stations such as the ISS; scientific satellites like the Hubble; Earth observation satellites from companies like Planet Labs, Umbra, and HawkEye 360; GPS; miniature CubeSats for education and research; and military/defense satellites.

Loading next visibility...
Identifier
62816, 2025-018L
Orbit
LEO
Last TLE update
7 hours ago
Origin
Manufacturer
SpaceX/Seattle
Mission
Operational Commercial Communications
Bus & Motor
STARLINK V2M, Unknown motor
Mass
730 kg wet, ~700 kg dry
Launch date (UTC)
2025-01-24 (3 months ago)
Launch vehicle
FALCON 9
Launch site
Air Force Western Test Range (AFWTR)
Object type
Payload
Rocket body
Debris
Shape & HBR
Box + 2 Pan, 29 m
Radar Cross Section
33.884 m², Large (>1 m²)

Expand to show TLE details & history

TLE from 7 hours ago
0 STARLINK-32854
1 62816U 25018L   25128.91668981  .00067640  00000-0  16880-2 0  9993
2 62816  53.1588 287.0111 0000735  77.4557 201.4558 15.39583993  5943
Epoch: 2025-05-08T22:00Z
Definitive object data (Epoch: 2025-05-08T22:00:01.999Z)
Latitude
-52.40402°
Longitude
14.63938°
Altitude
465.995 km
Speed
7.633 km/s
True Right ascension
14h 06m 30s
True Declination
-52° 13' 50"
Sunlit
Object was in full shadow at TLE epoch
Visualization TLE readout
Latitude
9.74606°
Longitude
-98.76531°
Altitude
447.373 km
Speed
7.646 km/s
Apparent Right ascension
04h 28m 17s
Apparent Declination
-17° 36' 51"
Sunlit
Object is in daylight
Visualization observer readout
Local Sidereal Time
13:27:12
Azimuth
286.324° WNW
Elevation
-45.125°
Doppler factor
1
Orbital elements
Apogee altitude
448.098 km
Perigee altitude
447.095 km
Semi-major axis
6,825.733 km
Eccentricity
0.0000735
Inclination
53.1588°
RAAN
287.0111°
Arg. of periapsis
77.4557°
True anomaly
201.45272°
Mean anomaly
201.4558°
Eccentric anomaly
201.45426°
Mean motion
3.84875 °/min
BSTAR
0.001688
Orbital period
93.54 mins
Loading maneuver chart data...
Loading SW <> Apogee altitude chart data...
Loading historical data...
Loading historical data...
Loading historical data...
Loading historical data...
Loading historical data...
Loading historical data...
Loading historical data...

STARLINK-32854 Visibility forecast

Observer location: undefined°, undefined°

Span
Click to sort rows by Start time (UTC) header in descending order
Start Az.
Max El. time (UTC)
Max El. Az.
Max El.
End time (UTC)
End Az.
6 mins2025-05-09 12:31:33.569Z193.108° SSW2025-05-09 12:34:33.569Z130.84° SE26.17°2025-05-09 12:37:33.569Z70.409° E
4 mins2025-05-09 14:10:33.569Z289.821° WNW2025-05-09 14:11:33.569Z320.837° NNW27.635°2025-05-09 14:14:33.569Z30.853° NE
5 mins2025-05-09 19:04:33.569Z336.933° NNW2025-05-09 19:06:33.569Z22.634° NE25.339°2025-05-09 19:09:33.569Z89.414° E
4 mins2025-05-09 20:42:33.569Z274.902° WNW2025-05-09 20:44:33.569Z207.963° SW28.54°2025-05-09 20:46:33.569Z166.045° S
|